Location: El Corozo
(10.5833°N, 66.9667°W)
Time: 11:51:20
(UTC+00:00)

SPOT 1/Viking Rocket - Pass Details

Date: 23 May 2024
Orbit: 774 x 792 km, 98.3° (Epoch: 24 June)

Event Time Altitude Azimuth Distance (km) Brightness Sun altitude
Exits shadow 00:39:37 39° 203° (SSW) 1,156 4.3 -26.5°
Maximum altitude 00:41:15 57° 258° (WSW) 923 4.0 -26.8°
Drops below altitude 10° 00:46:18 10° 337° (NNW) 2,333 6.6 -27.9°
Sets 00:48:39 0° 341° (NNW) 3,258 7.4 -28.4°
